Rochester, NY

8:55 PM EDT on March 24, 2017 (GMT -0400)
Greater Rochester International

Weather History for KROC - February, 2013

Change the Weather History Date:

Tuesday, February 26, 2013

  Actual Average Record
Temperature  
Mean Temperature 35 °F 29 °F  
Max Temperature 44 °F 37 °F 66 °F (2000)
Min Temperature 25 °F 21 °F -2 °F (2003)
Degree Days  
Heating Degree Days 30 36  
Month to date heating degree days 1002 1009  
Since 1 July heating degree days 4247 4713  
Cooling Degree Days 0 0  
Month to date cooling degree days 0 0  
Year to date cooling degree days 0 0  
Moisture  
Dew Point 28 °F    
Average Humidity 75    
Maximum Humidity 96    
Minimum Humidity 53    
Precipitation  
Precipitation 0.74 in 0.07 in 1.12 in (2010)
Month to date precipitation 2.16 1.79  
Year to date precipitation 3.63 4.20  
Snow  
Snow 1.70 in 0.80 in 11.80 in (2010)
Month to date snowfall 25.5 20.0  
Since 1 July snowfall 60.6 77.4  
Snow Depth 0.00 in    
Sea Level Pressure  
Sea Level Pressure 30.01 in    
Wind  
Wind Speed 11 mph (ESE)    
Max Wind Speed 24 mph    
Max Gust Speed 32 mph    
Visibility 6 miles    
Events Fog , Rain , Snow    
T = Trace of Precipitation, MM = Missing Value Source: NWS Daily Summary

Daily Weather History Graph

Daily Weather History Graph

Search for Another Location

Airport or City:

Trip Planner

Search our weather history database for the weather conditions in past years. The results will help you decide how hot, cold, wet, or windy it might be!

Date:

Astronomy

Feb. 26, 2013 Rise Set
Actual Time 6:51 AM EST 5:56 PM EST
Civil Twilight 6:22 AM EST 6:25 PM EST
Nautical Twilight 5:49 AM EST 6:58 PM EST
Astronomical Twilight 5:16 AM EST 7:30 PM EST
Moon 7:14 PM EST (2/26) 6:50 AM EST (2/26)
Length of Visible Light 12h 02m
Length of Day
11h 05m
Full, 99% of the Moon is Illuminated
Feb 26
Full
Mar 4
Last Quarter
Mar 11
New
Mar 19
First Quarter
Mar 27
Full

Hourly Weather History & Observations

Time (EST) Temp. Windchill Dew Point Humidity Pressure Visibility Wind Dir Wind Speed Gust Speed Precip Events Conditions
12:54 AM 30.0 °F 25.2 °F 25.0 °F 82% 30.24 in 8.0 mi ESE 4.6 mph - N/A   Scattered Clouds
1:54 AM 26.1 °F - 21.9 °F 84% 30.25 in 6.0 mi Calm Calm - N/A   Partly Cloudy
2:54 AM 26.1 °F - 23.0 °F 88% 30.24 in 6.0 mi Calm Calm - N/A   Partly Cloudy
3:54 AM 27.0 °F 21.6 °F 23.0 °F 85% 30.23 in 7.0 mi ESE 4.6 mph - N/A   Clear
4:54 AM 27.0 °F 20.5 °F 23.0 °F 85% 30.23 in 8.0 mi East 5.8 mph - N/A   Clear
5:54 AM 28.0 °F 21.7 °F 24.1 °F 85% 30.22 in 7.0 mi East 5.8 mph - N/A   Partly Cloudy
6:54 AM 26.1 °F 17.6 °F 23.0 °F 88% 30.21 in 5.0 mi East 8.1 mph - N/A   Scattered Clouds
7:54 AM 28.9 °F 20.4 °F 24.1 °F 82% 30.20 in 7.0 mi ESE 9.2 mph - N/A   Mostly Cloudy
8:54 AM 32.0 °F 24.2 °F 25.0 °F 75% 30.20 in 10.0 mi ESE 9.2 mph - N/A   Mostly Cloudy
9:54 AM 36.0 °F 28.0 °F 26.1 °F 67% 30.19 in 10.0 mi SE 11.5 mph - N/A   Mostly Cloudy
10:54 AM 39.0 °F 32.8 °F 26.1 °F 60% 30.15 in 10.0 mi East 9.2 mph - N/A   Mostly Cloudy
11:54 AM 42.1 °F 36.1 °F 27.0 °F 55% 30.13 in 10.0 mi ESE 10.4 mph - N/A   Mostly Cloudy
12:54 PM 43.0 °F 35.7 °F 26.1 °F 51% 30.08 in 10.0 mi SE 15.0 mph 23.0 mph N/A   Overcast
1:54 PM 43.0 °F 34.5 °F 26.1 °F 51% 30.05 in 10.0 mi SE 19.6 mph 25.3 mph N/A   Overcast
2:54 PM 42.1 °F 35.7 °F 26.1 °F 53% 30.03 in 10.0 mi SE 11.5 mph 24.2 mph N/A   Overcast
3:54 PM 42.1 °F 34.9 °F 26.1 °F 53% 30.01 in 10.0 mi ESE 13.8 mph 23.0 mph N/A   Overcast
4:54 PM 42.1 °F 34.9 °F 26.1 °F 53% 29.97 in 10.0 mi ESE 13.8 mph - N/A   Overcast
5:54 PM 41.0 °F 33.1 °F 26.1 °F 55% 29.97 in 10.0 mi ESE 15.0 mph 20.7 mph N/A   Overcast
6:54 PM 39.9 °F 31.4 °F 27.0 °F 60% 29.97 in 10.0 mi ESE 16.1 mph 24.2 mph 0.00 in Rain Light Rain
7:54 PM 37.0 °F 26.4 °F 30.0 °F 76% 29.94 in 5.0 mi ESE 20.7 mph 29.9 mph 0.06 in Rain , Snow Rain
8:06 PM 35.6 °F 25.2 °F 30.2 °F 81% 29.91 in 6.0 mi East 18.4 mph - 0.02 in Rain , Snow Ice Pellets
8:18 PM 35.6 °F 25.2 °F 30.2 °F 81% 29.90 in 6.0 mi ESE 18.4 mph 24.2 mph 0.02 in Rain , Snow Light Ice Pellets
8:54 PM 35.1 °F 25.5 °F 32.0 °F 89% 29.91 in 7.0 mi ESE 15.0 mph 23.0 mph 0.05 in Rain , Snow Light Ice Pellets
9:15 PM 35.6 °F 27.5 °F 32.0 °F 87% 29.89 in 6.0 mi ESE 11.5 mph 19.6 mph 0.00 in Rain , Snow Light Snow
9:39 PM 35.6 °F 27.1 °F 32.0 °F 87% 29.90 in 5.0 mi ESE 12.7 mph - 0.02 in Snow Light Snow
9:54 PM 34.0 °F 26.6 °F 32.0 °F 92% 29.93 in 3.0 mi ESE 9.2 mph - 0.04 in Snow Light Snow
10:00 PM 33.8 °F 25.8 °F 30.2 °F 87% 29.91 in 2.5 mi ESE 10.4 mph - 0.01 in Snow Light Snow
10:02 PM 33.8 °F 25.8 °F 30.2 °F 87% 29.91 in 1.0 mi ESE 10.4 mph - 0.01 in Snow Light Snow
10:05 PM 33.8 °F 26.4 °F 30.2 °F 87% 29.91 in 0.8 mi ESE 9.2 mph - 0.02 in Snow Light Snow
10:20 PM 33.8 °F 24.8 °F 30.2 °F 87% 29.90 in 0.2 mi East 12.7 mph - 0.07 in Fog , Snow Heavy Snow
10:38 PM 33.8 °F 25.3 °F 32.0 °F 93% 29.87 in 0.5 mi East 11.5 mph - 0.16 in Fog , Snow Snow
10:46 PM 33.8 °F 24.3 °F 32.0 °F 93% 29.87 in 1.0 mi East 13.8 mph - 0.26 in Snow Light Snow
10:48 PM 33.8 °F 24.8 °F 32.0 °F 93% 29.87 in 2.0 mi East 12.7 mph - 0.27 in Snow Light Snow
10:54 PM 33.1 °F 23.9 °F 32.0 °F 96% 29.89 in 2.0 mi East 12.7 mph - 0.29 in Snow Light Snow
11:02 PM 33.8 °F 23.9 °F 32.0 °F 93% 29.87 in 1.0 mi East 15.0 mph - 0.04 in Snow Light Snow
11:06 PM 33.8 °F 23.9 °F 32.0 °F 93% 29.87 in 2.0 mi East 15.0 mph - 0.06 in Snow Light Snow
11:19 PM 33.8 °F 24.3 °F 32.0 °F 93% 29.86 in 2.5 mi East 13.8 mph - 0.17 in Snow Light Snow
11:25 PM 33.8 °F 24.8 °F 32.0 °F 93% 29.86 in 3.0 mi ESE 12.7 mph - 0.22 in Rain Heavy Rain
11:33 PM 33.8 °F 24.8 °F 32.0 °F 93% 29.86 in 2.0 mi East 12.7 mph - 0.25 in Rain , Snow Light Snow
11:54 PM 34.0 °F 24.2 °F 32.0 °F 92% 29.85 in 2.0 mi East 15.0 mph - 0.29 in Snow Light Snow